Change the Weather History Date:

Sunday, October 21, 2012

  Actual Average Record
Temperature  
Mean Temperature 76 °F 60 °F  
Max Temperature 89 °F 74 °F 90 °F (2003)
Min Temperature 63 °F 46 °F 26 °F (1917)
Degree Days  
Heating Degree Days 0 6  
Month to date heating degree days 99 84  
Since 1 July heating degree days 117 107  
Cooling Degree Days 11 1  
Month to date cooling degree days 41 46  
Year to date cooling degree days 2278 1795  
Growing Degree Days 26 (Base 50)    
Moisture  
Dew Point 39 °F    
Average Humidity 39    
Maximum Humidity 65    
Minimum Humidity 13    
Precipitation  
Precipitation 0.00 in 0.07 in 2.91 in (1969)
Month to date precipitation 0.28 1.42  
Year to date precipitation 10.74 17.00  
Snow  
Snow 0.00 in 0.00 in 4.10 in (1911)
Month to date snowfall 0.0 0.0  
Since 1 July snowfall 0.0 0.0  
Since 1 September snowfall 0.0 0.0  
Snow Depth 0.00 in    
Sea Level Pressure  
Sea Level Pressure 29.70 in    
Wind  
Wind Speed 14 mph (SW)    
Max Wind Speed 24 mph    
Max Gust Speed 37 mph    
Visibility 10 miles    
Events      
T = Trace of Precipitation, MM = Missing Value Source: NWS Daily Summary

Daily Weather History Graph

Daily Weather History Graph

Search for Another Location

Airport or City:

Trip Planner

Search our weather history database for the weather conditions in past years. The results will help you decide how hot, cold, wet, or windy it might be!

Date:

Astronomy

Oct. 21, 2012 Rise Set
Actual Time 7:57 AM CDT 7:05 PM CDT
Civil Twilight 7:32 AM CDT 7:31 PM CDT
Nautical Twilight 7:02 AM CDT 8:00 PM CDT
Astronomical Twilight 6:34 AM CDT 8:29 PM CDT
Moon 2:14 PM CDT 12:02 AM CDT
Length of Visible Light 11h 59m
Length of Day
11h 08m
Waxing Crescent, 45% of the Moon is Illuminated
Oct 21
Waxing Crescent
Oct 21
First Quarter
Oct 29
Full
Nov 6
Last Quarter
Nov 13
New

Hourly Weather History & Observations

Time (CDT) Temp. Dew Point Humidity Pressure Visibility Wind Dir Wind Speed Gust Speed Precip Events Conditions
12:53 AM 72.0 °F 42.1 °F 34% 29.63 in 10.0 mi SSW 16.1 mph - N/A   Partly Cloudy
1:53 AM 70.0 °F 46.9 °F 44% 29.63 in 10.0 mi SW 18.4 mph 24.2 mph N/A   Partly Cloudy
2:53 AM 68.0 °F 48.9 °F 50% 29.64 in 10.0 mi SW 11.5 mph - N/A   Partly Cloudy
3:53 AM 64.9 °F 50.0 °F 58% 29.64 in 10.0 mi WSW 12.7 mph - N/A   Partly Cloudy
4:53 AM 62.6 °F 50.0 °F 63% 29.81 in 10.0 mi SW 10.4 mph - N/A   Partly Cloudy
5:53 AM 63.0 °F 48.9 °F 60% 29.66 in 10.0 mi SW 11.5 mph - N/A   Partly Cloudy
6:53 AM 64.0 °F 48.0 °F 56% 29.68 in 10.0 mi SW 13.8 mph - N/A   Partly Cloudy
7:53 AM 63.0 °F 46.0 °F 54% 29.70 in 10.0 mi WSW 10.4 mph - N/A   Partly Cloudy
8:53 AM 64.9 °F 45.0 °F 48% 29.73 in 10.0 mi SW 16.1 mph 20.7 mph N/A   Partly Cloudy
9:53 AM 71.1 °F 43.0 °F 36% 29.74 in 10.0 mi WSW 11.5 mph - N/A   Partly Cloudy
10:53 AM 79.0 °F 39.0 °F 24% 29.74 in 10.0 mi West 20.7 mph 25.3 mph N/A   Partly Cloudy
11:53 AM 84.9 °F 37.0 °F 18% 29.73 in 10.0 mi West 17.3 mph - N/A   Clear
12:53 PM 86.0 °F 36.0 °F 17% 29.72 in 10.0 mi West 13.8 mph 25.3 mph N/A   Clear
1:53 PM 87.1 °F 36.0 °F 16% 29.70 in 10.0 mi WSW 13.8 mph 25.3 mph N/A   Clear
2:53 PM 88.0 °F 35.1 °F 15% 29.67 in 10.0 mi West 17.3 mph 27.6 mph N/A   Partly Cloudy
3:53 PM 88.0 °F 33.1 °F 14% 29.68 in 10.0 mi SW 17.3 mph 26.5 mph N/A   Partly Cloudy
4:53 PM 87.1 °F 30.9 °F 13% 29.68 in 10.0 mi SW 20.7 mph 27.6 mph N/A   Partly Cloudy
5:53 PM 87.1 °F 30.0 °F 13% 29.69 in 10.0 mi SW 18.4 mph - N/A   Partly Cloudy
6:53 PM 81.0 °F 30.9 °F 16% 29.70 in 10.0 mi WSW 9.2 mph - N/A   Partly Cloudy
7:53 PM 75.9 °F 32.0 °F 20% 29.72 in 10.0 mi SW 5.8 mph - N/A   Partly Cloudy
8:53 PM 73.0 °F 33.1 °F 23% 29.73 in 10.0 mi SSW 10.4 mph - N/A   Partly Cloudy
9:53 PM 73.9 °F 30.0 °F 20% 29.73 in 10.0 mi SW 10.4 mph - N/A   Partly Cloudy
10:53 PM 73.0 °F 34.0 °F 24% 29.72 in 10.0 mi SW 17.3 mph - N/A   Partly Cloudy
11:53 PM 73.0 °F 37.0 °F 27% 29.72 in 10.0 mi SW 11.5 mph - N/A   Partly Cloudy